Bookmark and Share
Track history (hours):
 

Clifford Maersk

Last reported at 2014-Apr-24 11:33 UTC. Time now 2014-Apr-24 11:37 UTC.
Position N 01°21' E 103°33'.

Type: Ship (hazmat cat A). MMSI: 219840000.

NotesDate/timePositionNaut miles runAvg speedWind from/ knotsBaromVisibWave heightAir tempDewpointWater temp
2014-Apr-24 11:33N 01°21' E 103°33'5 5.3
2014-Apr-24 10:33N 01°16' E 103°33'1514.9
2014-Apr-24 09:33N 01°10' E 103°46'  
2014-Apr-20 09:14N 22°20' E 114°07'0 0.0
2014-Apr-19 16:20N 22°20' E 114°07'161 8.4
2014-Apr-18 21:12N 22°54' E 116°58'16713.2
2014-Apr-18 08:33N 24°32' E 119°25'1614.4
2014-Apr-18 07:28N 24°43' E 119°37'38215.1
2014-Apr-17 06:07N 30°29' E 122°38'1016.8
2014-Apr-17 05:32N 30°31' E 122°26'1212.1
2014-Apr-17 04:33N 30°33' E 122°13'10 0.6
2014-Apr-16 11:04N 30°38' E 122°03'1 1.9
2014-Apr-16 10:33N 30°37' E 122°03'1211.5
2014-Apr-16 09:31N 30°34' E 122°17'1914.9
2014-Apr-16 08:16N 30°27' E 122°37'13 1.2
2014-Apr-15 22:03N 30°21' E 122°50'610.6
2014-Apr-15 21:29N 30°18' E 122°56'18 8.4
2014-Apr-15 19:21N 30°00' E 122°50'911.4
2014-Apr-15 18:33N 29°53' E 122°44'1212.0
2014-Apr-15 17:33N 29°46' E 122°32'1212.3
2014-Apr-15 16:33N 29°45' E 122°18'1312.7
2014-Apr-15 15:34N 29°55' E 122°09'1312.6
2014-Apr-15 14:34N 29°57' E 121°55'4 2.0
2014-Apr-15 12:33N 29°57' E 121°50'0 0.0
2014-Apr-15 11:30N 29°57' E 121°50'0 0.0
2014-Apr-15 10:33N 29°57' E 121°50'0 0.0
2014-Apr-15 09:33N 29°57' E 121°50'0 0.0
2014-Apr-15 08:32N 29°57' E 121°50'0 0.0
2014-Apr-15 07:29N 29°57' E 121°50'0 0.0
2014-Apr-15 06:29N 29°57' E 121°50'0 0.0
2014-Apr-15 05:29N 29°57' E 121°50'0 0.0
2014-Apr-15 02:29N 29°57' E 121°50'0 0.0
2014-Apr-15 01:29N 29°57' E 121°50'0 0.0
2014-Apr-14 23:29N 29°57' E 121°50'1 0.8
2014-Apr-14 22:34N 29°57' E 121°50'1110.9
2014-Apr-14 21:34N 29°56' E 122°03'1212.2
2014-Apr-14 20:34N 29°49' E 122°14'8 7.8
2014-Apr-14 19:33N 29°44' E 122°22'10 9.7
2014-Apr-14 18:34N 29°46' E 122°33'1110.7
2014-Apr-14 17:33N 29°47' E 122°45'1212.3
2014-Apr-14 16:34N 29°49' E 122°59'1313.0
2014-Apr-14 15:34N 29°52' E 123°14'1212.2
2014-Apr-14 14:34N 29°53' E 123°28'1211.8
2014-Apr-14 13:34N 29°55' E 123°41'  

Dump ship's entire track history

sailing weather and tide predictions

Clifford Maersk — OYRO2 — position and weather